SCP
0 0 0 0 0 0 0 0 0 0 0 0 0 0 0 0 0 0 0 0 0 0 0 0 0 0 0 0 0 0 0 0 0 0 0 0 0 0 0 0 0 0 0
0 0 0 0 0 0 0 0 0 0 0 0 0 0 0 0 0 0 0 0 0 0 0 0 0 0 0 0 0 0 0 0 0 0 0 0 0 0 0 0 0 0 0
0 0 0 0 0 0 0 0 0 0 0 0 0 0 0 0 0 0 0 0 0 0 0 0 0 0 0 0 0 0 0 0 0 0 0 0 0 0 0 0 0 0 0
0 0 0 0 0 0 0 0 0 0 0 0 0 0 0 0 0 0 0 0 0 0 0 0 0 0 0 0 0 0 0 0 0 0 0 0 0 0 0 0 0 0 0
0 0 0 0 0 0 0 0 0 0 0 0 0 0 0 0 0 0 0 0 0 0 0 0 0 0 0 0 0 0 0 0 0 0 0 0 0 0 0 0 0 0 0
0 0 0 0 0 0 0 0 0 0 0 0 0 0 0 0 0 0 0 0 0 0 0 0 0 0 0 0 0 0 0 0 0 0 0 0 0 0 0 0 0 0 0
0 0 0 0 0 0 0 0 0 0 0 0 0 0 0 0 0 0 0 0 0 0 0 0 0 0 0 0 0 0 0 0 0 0 0 0 0 0 0 0 0 0 0
0 0 0 0 0 0 0 0 0 0 0 0 0 0 0 0 0 0 0 0 0 0 0 0 0 0 0 0 0 0 0 0 0 0 0 0 0 0 0 0 0 0 0
0 0 0 0 0 0 0 0 0 0 0 0 0 0 0 0 0 0 0 0 0 0 0 0 0 0 0 0 0 0 0 0 0 0 0 0 0 0 0 0 0 0 0
0 0 0 0 0 0 0 0 0 0 0 0 0 0 0 0 0 0 0 0 0 0 0 0 0 0 0 0 0 0 0 0 0 0 0 0 0 0 0 0 0 0 0
0 0 0 0 0 0 0 0 0 0 0 0 0 0 0 0 0 0 0 0 0 0 0 0 0 0 0 0 0 0 0 0 0 0 0 0 0 0 0 0 0 0 0
0 0 0 0 0 0 0 0 0 0 0 0 0 0 0 0 0 0 0 0 0 0 0 0 0 0 0 0 0 0 0 0 0 0 0 0 0 0 0 0 0 0 0
0 0 0 0 0 0 0 0 0 0 0 0 0 0 0 0 0 0 0 0 0 0 0 0 0 0 0 0 0 0 0 0 0 0 0 0 0 0 0 0 0 0 0
0 0 0 0 0 0 0 0 0 0 0 0 0 0 0 0 0 0 0 0 0 0 0 0 0 0 0 -0 0 0 0 0 0 0 0 0 0 0 0 0 0 0 0
0 0 0 0 0 0 0 0 0 0 0 0 0 0 0 0 0 0 0 0 0 0 0 0 0 0 -0 -0 0 0 0 0 0 0 0 0 0 0 0 0 0 0 0
0 0 0 0 0 0 0 0 0 0 0 0 0 0 0 0 0 0 0 0 0 0 0 0 0 0 -0 0 0 0 0 0 0 0 0 0 0 0 0 0 0 0 0
0 0 0 0 0 0 0 0 0 0 0 0 0 0 0 0 0 0 0 0 0 0 0 0 0 -0 -0 0 0 0 0 0 0 0 0 0 0 0 0 0 0 0 0
0 0 0 0 0 0 0 0 0 0 0 0 0 0 0 0 0 0 0 0 0 0 0 0 0 -0 0 0 0 0 0 0 0 0 0 0 0 0 0 0 0 0 0
0 0 0 0 0 0 0 0 0 0 0 0 0 0 0 0 0 0 0 0 0 0 0 0 0 0 0 0 0 0 0 0 0 0 0 0 0 0 0 0 0 0 0
0 0 0 0 0 0 0 0 0 0 0 0 0 0 0 0 0 0 0 0 0 0 0 0 0 0 0 0 0 0 0 0 0 0 0 0 0 0 0 0 0 0 0
0 0 0 0 0 0 0 0 0 0 0 0 0 0 0 0 0 0 0 0 0 0 0 0 0 0 0 0 0 0 0 0 0 0 0 0 0 0 0 0 0 0 0
0 0 0 0 0 0 0 0 0 0 0 0 0 0 0 0 0 0 0 0 0 0 0 0 0 0 0 0 0 0 0 0 0 0 0 0 0 0 0 0 0 0 0
0 0 0 0 0 0 0 0 0 0 0 0 0 0 0 0 0 0 0 0 0 0 0 0 0 0 0 0 0 0 0 0 0 0 0 0 0 0 0 0 0 0 0
0 0 0 0 0 0 0 0 0 0 0 0 0 0 0 0 0 0 0 0 0 0 0 0 0 0 0 0 0 0 0 0 0 0 0 0 0 0 0 0 0 0 0
0 0 0 0 0 0 0 0 0 0 0 0 0 0 0 0 0 0 0 0 -0 -0 0 0 0 0 0 0 0 0 0 0 0 0 0 0 0 0 0 0 0 0 0
0 0 0 0 0 0 0 0 0 0 0 0 0 0 0 0 0 0 0 0 -0 -0 0 0 0 0 0 0 0 0 0 0 0 0 0 0 0 0 0 0 0 0 0
Wind_Speed
1 0 0 0 1 0 0 1 1 1 1 2 1 1 1 1 1 1 2 4 4 4 4 5 5 6 6 6 7 7 7 7 7 6 6 6 6 6 7 6 6 6 5
1 1 0 0 0 0 0 0 1 1 1 1 1 1 1 1 1 1 1 3 4 4 4 5 5 6 7 7 7 7 7 8 7 7 7 7 7 7 6 6 7 6 6
2 1 1 1 1 1 0 0 1 1 1 1 1 2 1 1 1 1 1 1 2 4 4 5 6 7 7 8 8 8 8 8 8 7 7 7 7 7 6 6 6 7 7
2 1 1 1 1 1 0 0 0 1 1 1 2 2 1 1 1 2 1 1 1 1 3 5 6 7 8 8 9 8 8 9 8 8 8 7 7 8 7 7 6 6 7
1 1 1 1 1 0 0 0 0 0 1 1 2 2 1 1 2 2 1 1 1 1 1 3 5 6 8 9 9 9 8 9 9 8 8 8 8 8 8 8 8 7 7
1 1 1 1 1 1 0 0 0 1 1 1 2 2 2 2 2 1 2 1 1 1 1 2 2 4 6 8 9 9 10 10 9 8 8 8 8 8 9 8 8 8 8
2 2 1 1 1 1 1 1 0 1 1 1 1 2 2 2 2 1 1 1 1 1 1 1 2 2 3 6 8 9 10 11 10 9 8 9 8 8 8 8 8 8 8
2 2 2 2 1 1 1 1 0 0 1 0 0 0 2 2 1 1 1 1 1 1 1 2 2 2 2 2 5 8 9 10 10 9 9 9 8 8 9 9 9 8 8
2 2 2 2 2 2 2 2 1 2 1 1 1 1 1 3 2 2 1 1 1 1 1 1 2 3 3 2 3 6 9 10 10 9 9 9 8 8 9 9 9 9 8
2 2 2 2 2 2 2 2 2 2 2 1 1 1 1 2 1 2 2 1 1 2 2 2 3 3 3 3 4 7 8 9 10 9 9 9 8 9 9 9 10 10 9
2 2 2 1 2 2 2 2 2 2 2 2 2 1 1 1 1 2 3 3 2 2 2 2 3 2 3 3 3 5 8 9 9 9 9 9 9 9 9 9 10 10 9
1 2 2 1 2 2 2 2 2 3 3 2 2 2 2 1 1 2 2 3 3 3 2 2 2 2 2 2 4 7 8 8 8 8 8 9 9 10 10 10 10 10 9
2 2 2 2 2 2 2 2 2 2 2 2 2 2 2 2 2 2 2 2 3 3 2 2 2 2 2 2 3 7 7 8 8 8 8 8 9 9 10 10 10 9 9
3 3 3 2 3 2 2 2 2 2 2 2 2 2 2 2 2 2 2 1 2 3 3 3 2 2 2 2 4 7 5 8 8 8 8 8 8 9 9 10 10 9 8
2 2 2 2 3 2 2 2 2 2 2 2 2 3 2 2 2 2 2 2 3 3 4 3 2 2 2 2 5 4 4 7 9 8 8 8 8 8 8 10 10 8 7
2 2 2 3 3 2 2 2 2 2 2 2 2 3 3 2 2 2 2 2 3 3 5 3 3 3 3 4 6 4 4 8 8 8 8 8 8 8 8 9 8 6 6
3 3 3 3 3 3 2 2 2 3 3 3 3 3 3 2 2 2 2 2 3 3 5 4 3 3 3 4 4 3 3 3 4 7 7 7 7 7 8 8 7 6 5
3 3 2 3 3 3 3 3 3 3 4 4 4 3 3 3 3 3 3 3 3 3 4 5 4 3 4 4 3 3 3 3 3 6 7 7 7 7 7 7 7 6 5
3 2 2 2 3 3 3 3 3 3 4 4 4 4 4 4 4 3 4 3 3 3 3 4 4 3 3 2 2 3 3 3 3 4 6 6 6 6 6 6 6 6 5
3 3 3 3 3 3 3 3 3 3 3 3 4 4 4 5 5 5 4 4 3 3 3 3 3 3 3 2 1 2 3 2 3 3 3 4 5 6 6 6 6 6 6
4 3 3 3 3 3 3 3 3 3 3 3 3 3 4 5 6 4 3 3 3 3 2 3 3 3 2 1 2 2 3 3 3 2 2 2 2 2 3 5 6 6 6
3 3 3 3 3 3 4 5 3 3 3 3 3 3 4 5 6 6 6 5 4 3 3 3 3 4 4 3 2 2 2 2 3 1 1 3 2 2 3 2 6 8 7
3 3 3 3 4 5 6 5 4 3 3 3 3 3 3 4 5 4 5 5 5 6 5 4 5 5 4 3 2 2 2 3 3 3 2 3 2 3 3 4 8 8 8
3 4 4 4 4 5 6 5 5 3 3 3 4 4 4 4 4 3 2 2 3 4 5 4 4 4 3 3 3 3 2 2 3 2 1 2 2 2 3 3 6 7 7
3 4 4 4 4 4 6 5 4 2 2 3 3 3 3 4 6 4 2 2 3 3 4 5 4 4 4 4 3 0 0 1 2 2 1 1 1 2 3 3 3 5 6
3 3 3 3 4 4 5 5 4 2 2 2 2 3 5 4 5 4 2 3 3 3 1 2 2 3 2 3 4 2 2 2 2 2 1 1 1 1 3 2 2 2 3
Wind_Direction
152 108 43 13 354 0 5 351 356 356 348 338 327 327 305 297 308 311 311 328 330 319 313 314 312 313 306 303 302 303 301 304 301 302 300 298 290 292 289 286 287 288 289
172 185 197 257 304 316 311 294 289 296 304 318 317 305 274 262 268 284 300 318 336 328 319 314 312 310 309 304 300 301 299 300 300 299 302 299 295 285 286 287 285 280 282
179 183 199 239 262 269 310 353 332 328 314 322 308 293 273 262 264 275 290 300 314 329 324 318 311 308 308 304 301 298 301 303 297 296 298 297 298 289 285 286 288 277 274
180 178 202 236 245 236 206 272 322 335 321 314 299 291 284 273 272 270 277 285 290 304 316 319 316 310 308 307 303 299 297 300 294 295 296 298 299 298 287 282 284 288 279
188 175 202 246 232 208 212 254 325 274 292 302 293 288 291 277 271 275 274 272 271 278 286 319 321 317 312 309 307 305 301 300 295 292 292 297 299 304 297 284 279 283 280
198 187 193 225 226 191 230 237 262 300 265 276 307 315 307 290 280 269 270 273 271 279 295 308 312 316 317 314 312 308 307 304 298 295 293 295 299 303 304 292 284 281 277
205 194 210 198 214 205 228 230 236 296 307 294 331 319 311 285 271 265 261 257 271 289 315 301 295 303 309 321 318 314 311 308 304 300 299 297 301 304 305 298 290 285 280
223 208 201 202 215 211 234 251 222 203 281 318 181 335 320 317 298 284 268 248 268 297 312 316 304 298 294 299 309 315 313 311 305 302 302 300 303 307 306 310 303 294 286
224 224 213 199 206 203 217 236 227 189 216 253 233 183 198 250 299 294 263 263 273 285 289 306 306 299 296 300 296 310 314 313 309 308 310 306 305 304 307 309 308 302 297
225 221 213 202 211 216 217 230 226 216 199 226 254 249 229 210 211 299 300 288 287 281 286 305 301 293 292 290 294 307 315 313 310 312 313 312 309 308 309 311 312 307 304
234 224 219 209 218 227 229 226 224 221 215 211 210 219 239 265 221 220 278 299 302 277 282 284 284 287 291 291 293 298 313 313 312 317 317 316 312 310 313 311 311 309 306
254 239 235 224 227 229 234 231 223 219 219 216 214 210 204 211 227 222 247 277 288 290 288 277 269 274 286 294 297 312 315 316 318 322 321 322 321 317 318 314 312 313 313
253 247 239 236 240 234 235 231 225 228 219 214 215 227 228 230 222 225 235 264 286 296 290 276 258 270 277 296 299 318 316 318 316 315 315 316 316 317 314 314 311 310 307
235 236 228 236 240 233 230 220 229 228 216 211 221 225 232 239 225 223 212 228 287 291 277 269 281 256 266 288 296 316 306 313 315 310 309 310 312 312 313 317 313 308 303
241 234 227 234 242 238 228 216 223 230 213 205 215 224 229 230 224 234 231 208 217 266 276 258 260 268 287 294 294 296 292 302 311 308 303 304 304 308 317 317 312 305 305
239 231 237 236 239 238 228 215 217 224 213 216 216 218 229 227 225 224 233 233 229 237 262 260 262 277 289 292 291 294 289 307 309 306 305 301 302 306 312 315 315 309 308
226 225 228 230 233 233 227 216 217 218 212 219 226 221 235 231 231 232 239 233 234 235 259 277 272 272 269 277 289 292 286 288 292 305 305 302 303 306 309 315 318 313 314
226 228 225 232 234 233 228 219 224 223 215 217 226 224 234 231 235 233 238 235 237 238 244 267 273 272 265 271 280 287 295 296 284 294 300 299 300 306 308 315 318 321 322
227 235 225 230 238 235 231 226 222 224 223 220 222 224 233 231 236 235 242 238 239 246 239 250 268 269 274 274 297 298 295 290 294 298 298 295 300 308 314 319 322 323 320
223 227 228 233 237 232 226 225 222 225 228 228 228 227 231 231 234 233 238 236 235 245 249 252 261 267 270 275 279 290 306 312 313 319 312 309 309 314 319 322 322 319 315
230 228 226 235 242 233 222 215 213 220 223 236 239 236 238 244 248 246 249 233 223 234 245 255 259 273 267 271 266 271 291 308 311 301 304 305 310 312 309 311 318 313 311
235 230 228 230 239 246 245 227 210 214 224 233 245 249 246 243 249 253 261 258 242 232 232 236 253 258 263 260 266 274 287 306 305 299 318 306 304 297 298 295 309 311 310
233 236 237 233 241 252 247 235 220 203 216 231 237 245 252 251 249 242 252 260 260 259 248 237 242 245 252 247 244 256 262 276 269 278 294 288 291 293 291 297 307 305 306
224 233 239 237 244 254 253 242 227 211 218 233 235 237 245 253 244 230 221 246 257 257 260 256 246 249 253 251 232 235 248 276 281 277 250 265 281 282 301 297 297 296 303
230 234 237 234 238 253 254 246 228 212 227 246 248 245 247 249 246 242 211 235 264 267 276 276 281 285 287 286 279 211 262 290 290 291 248 228 273 300 299 290 295 304 307
228 233 244 235 233 242 252 248 227 206 226 242 252 250 256 260 256 250 207 214 242 255 268 301 301 301 293 280 282 228 210 243 274 277 244 213 237 310 310 293 293 304 305